Spokane, WA

3:32 PM PST on February 27, 2017 (GMT -0800)
Spokane International

Weather History for KGEG - February, 2013

Change the Weather History Date:

Saturday, February 16, 2013

  Actual Average Record
Temperature  
Mean Temperature 37 °F 33 °F  
Max Temperature 45 °F 40 °F 56 °F (1888)
Min Temperature 28 °F 26 °F -7 °F (1956)
Degree Days  
Heating Degree Days 28 32  
Month to date heating degree days 500 526  
Since 1 July heating degree days 4168 4459  
Cooling Degree Days 0 0  
Month to date cooling degree days 0 0  
Year to date cooling degree days 0 0  
Moisture  
Dew Point 31 °F    
Average Humidity 79    
Maximum Humidity 92    
Minimum Humidity 65    
Precipitation  
Precipitation T in 0.05 in 0.60 in (1970)
Month to date precipitation 0.04 0.75  
Year to date precipitation 1.67 2.54  
Snow  
Snow 0.00 in 0.20 in 6.20 in (1959)
Month to date snowfall 0.3 4.2  
Since 1 July snowfall 38.5 37.7  
Snow Depth 0.00 in    
Sea Level Pressure  
Sea Level Pressure 30.06 in    
Wind  
Wind Speed 8 mph (SSW)    
Max Wind Speed 18 mph    
Max Gust Speed 22 mph    
Visibility 10 miles    
Events Rain    
T = Trace of Precipitation, MM = Missing Value Source: NWS Daily Summary

Daily Weather History Graph

Daily Weather History Graph

Search for Another Location

Airport or City:

Trip Planner

Search our weather history database for the weather conditions in past years. The results will help you decide how hot, cold, wet, or windy it might be!

Date:

Astronomy

Feb. 16, 2013 Rise Set
Actual Time 6:53 AM PST 5:15 PM PST
Civil Twilight 6:21 AM PST 5:47 PM PST
Nautical Twilight 5:45 AM PST 6:23 PM PST
Astronomical Twilight 5:10 AM PST 6:58 PM PST
Moon 9:38 AM PST (2/16) No Moon Set
Length of Visible Light 11h 25m
Length of Day
10h 22m
Waxing Crescent, 40% of the Moon is Illuminated
Feb 16
Waxing Crescent
Feb 17
First Quarter
Feb 25
Full
Mar 4
Last Quarter
Mar 11
New

Hourly Weather History & Observations

Time (PST) Temp. Windchill Dew Point Humidity Pressure Visibility Wind Dir Wind Speed Gust Speed Precip Events Conditions
12:53 AM 32.0 °F 26.4 °F 28.0 °F 85% 30.27 in 10.0 mi ENE 5.8 mph - N/A   Clear
1:53 AM 30.9 °F 26.2 °F 28.0 °F 89% 30.25 in 10.0 mi ENE 4.6 mph - N/A   Clear
2:53 AM 30.9 °F 26.2 °F 28.0 °F 89% 30.22 in 10.0 mi ENE 4.6 mph - N/A   Clear
3:53 AM 30.0 °F 25.2 °F 27.0 °F 88% 30.19 in 10.0 mi ENE 4.6 mph - N/A   Clear
4:53 AM 28.0 °F 24.2 °F 27.0 °F 96% 30.18 in 10.0 mi NE 3.5 mph - N/A   Partly Cloudy
5:53 AM 28.9 °F 23.9 °F 27.0 °F 92% 30.17 in 10.0 mi ENE 4.6 mph - N/A   Partly Cloudy
6:53 AM 30.0 °F 25.2 °F 27.0 °F 88% 30.15 in 10.0 mi ENE 4.6 mph - N/A   Partly Cloudy
7:53 AM 30.0 °F 26.5 °F 28.0 °F 92% 30.14 in 10.0 mi ENE 3.5 mph - N/A   Mostly Cloudy
8:53 AM 34.0 °F - 30.0 °F 85% 30.14 in 10.0 mi Calm Calm - N/A   Scattered Clouds
9:53 AM 41.0 °F 35.8 °F 32.0 °F 70% 30.11 in 10.0 mi SSE 8.1 mph - N/A   Mostly Cloudy
10:53 AM 45.0 °F 40.6 °F 34.0 °F 65% 30.09 in 10.0 mi SSW 8.1 mph - N/A   Mostly Cloudy
11:24 AM 44.6 °F 37.8 °F 35.6 °F 71% 30.04 in 10.0 mi SW 15.0 mph - N/A   Mostly Cloudy
11:31 AM 44.6 °F 37.8 °F 35.6 °F 71% 30.03 in 10.0 mi SW 15.0 mph - N/A   Mostly Cloudy
11:53 AM 44.6 °F 38.8 °F 35.6 °F 71% 30.02 in 10.0 mi SW 11.5 mph - N/A   Mostly Cloudy
12:53 PM 43.0 °F 36.4 °F 36.0 °F 76% 30.03 in 10.0 mi SSW 12.7 mph - 0.00 in   Overcast
1:53 PM 43.0 °F 36.0 °F 37.0 °F 80% 29.98 in 10.0 mi South 13.8 mph - 0.00 in Rain Light Rain
2:32 PM 42.8 °F 34.8 °F 37.4 °F 81% 29.95 in 10.0 mi SW 17.3 mph - 0.00 in   Overcast
2:53 PM 42.1 °F 33.9 °F 37.0 °F 82% 29.99 in 9.0 mi SW 17.3 mph - 0.00 in   Overcast
3:53 PM 42.1 °F 34.9 °F 36.0 °F 79% 29.98 in 10.0 mi SW 13.8 mph - N/A   Mostly Cloudy
4:26 PM 42.8 °F 35.8 °F 37.4 °F 81% 29.92 in 10.0 mi SW 13.8 mph - N/A   Mostly Cloudy
4:53 PM 42.1 °F 35.2 °F 35.1 °F 76% 29.97 in 10.0 mi SW 12.7 mph - N/A   Scattered Clouds
5:53 PM 36.0 °F 29.6 °F 33.1 °F 89% 29.97 in 10.0 mi West 8.1 mph - N/A   Scattered Clouds
6:53 PM 35.1 °F 29.3 °F 32.0 °F 89% 29.95 in 10.0 mi SW 6.9 mph - N/A   Scattered Clouds
7:53 PM 36.0 °F 28.5 °F 32.0 °F 86% 29.94 in 10.0 mi SW 10.4 mph - N/A   Scattered Clouds
8:53 PM 36.0 °F 27.1 °F 28.0 °F 73% 29.94 in 10.0 mi WSW 13.8 mph - N/A   Overcast
9:53 PM 35.1 °F 26.4 °F 28.0 °F 76% 29.95 in 10.0 mi WSW 12.7 mph - N/A   Overcast
10:53 PM 34.0 °F 27.2 °F 28.0 °F 79% 29.95 in 10.0 mi WSW 8.1 mph - N/A   Overcast
11:53 PM 33.1 °F 25.5 °F 28.0 °F 82% 29.96 in 10.0 mi SSW 9.2 mph - N/A   Mostly Cloudy